This demonstration page uses our WeatherBlox Daily Observations layout. Learn more.

Left ArrowRight Arrow

36.19886, -115.1175

Hourly Observations for December 31, 2015

Temp ( °F °C ) Dew Point ( °F °C ) Humidity (%) Winds ( mph kmh ) Pressure ( in mb ) Visibility ( mi km ) Precip ( " mm )
12:53 am 00:53 Clear 37 2.8 17 -8.3 44 44 NNW 8 13 30.29 1026 10 16 0.00 0.00
1:53 am 01:53 Clear 37 2.8 17 -8.3 44 44 NNE 8 13 30.29 1026 10 16 0.00 0.00
2:53 am 02:53 Clear 37 2.8 17 -8.3 44 44 N 9 15 30.30 1026 10 16 0.00 0.00
3:53 am 03:53 Clear 37 2.8 18 -7.8 46 46 N 9 15 30.30 1026 10 16 0.00 0.00
4:53 am 04:53 Clear 37 2.8 17 -8.3 44 44 N 14 22 30.31 1026 10 16 0.00 0.00
5:53 am 05:53 Clear 37 2.8 15 -9.4 41 41 N 14 22 30.32 1027 10 16 0.00 0.00
6:53 am 06:53 Sunny 36 2.2 14 -10 40 40 N 15 24 30.36 1028 10 16 0.00 0.00
7:53 am 07:53 Sunny 37 2.8 13 -10.6 37 37 N 12 19 30.39 1029 10 16 0.00 0.00
8:53 am 08:53 Sunny 39 3.9 13 -10.6 34 34 N 15 24 30.40 1030 10 16 0.00 0.00
9:53 am 09:53 Sunny 41 5 12 -11.1 30 30 N 13 20 30.41 1030 10 16 0.00 0.00
10:53 am 10:53 Sunny 43 6.1 12 -11.1 28 28 N 13 20 30.40 1029 10 16 0.00 0.00
11:53 am 11:53 Sunny 44 6.7 11 -11.7 26 26 NE 8 13 30.36 1028 10 16 0.00 0.00
12:53 pm 12:53 Sunny 45 7.2 11 -11.7 25 25 VRB 3 6 30.32 1027 10 16 0.00 0.00
1:53 pm 13:53 Sunny 47 8.3 10 -12.2 22 22 ENE 5 7 30.29 1026 10 16 0.00 0.00
2:53 pm 14:53 Sunny 48 8.9 10 -12.2 21 21 N 10 17 30.28 1025 10 16 0.00 0.00
3:53 pm 15:53 Sunny 47 8.3 9 -12.8 21 21 N 9 15 30.28 1025 10 16 0.00 0.00
4:53 pm 16:53 Clear 44 6.7 8 -13.3 23 23 NNE 8 13 30.28 1025 10 16 0.00 0.00
5:53 pm 17:53 Clear 42 5.6 8 -13.3 24 24 NNE 7 11 30.29 1026 10 16 0.00 0.00
6:53 pm 18:53 Clear 41 5 7 -13.9 24 24 NNE 7 11 30.31 1026 10 16 0.00 0.00
7:53 pm 19:53 Clear 39 3.9 7 -13.9 26 26 N 5 7 30.32 1027 10 16 0.00 0.00
8:53 pm 20:53 Clear 39 3.9 8 -13.3 28 28 NE 7 11 30.33 1027 10 16 0.00 0.00
9:53 pm 21:53 Clear 38 3.3 8 -13.3 29 29 N 13 20 30.33 1027 10 16 0.00 0.00
10:53 pm 22:53 Clear 37 2.8 8 -13.3 30 30 N 12 19 30.33 1027 10 16 0.00 0.00
11:53 pm 23:53 Clear 36 2.2 8 -13.3 31 31 N 9 15 30.33 1027 10 16 0.00 0.00

Powered by AerisWeather